Location: Unspecified
(0.0000°N, 0.0000°E)
Time: 11:29:22
(UTC+00:00)

S-56A Canister/Altair - Pass Details

Date: 22 November 2019
Orbit: 633 x 2499 km, 38.9° (Epoch: 07 December)

Event Time Altitude Azimuth Distance (km) Brightness Sun altitude
Rises 15:35:55 0° 275° (W) 6,017 13.0 30.3°
Reaches altitude 10° 15:43:51 10° 300° (WNW) 4,674 12.1 28.5°
Maximum altitude 15:48:19 12° 321° (NW) 4,217 11.6 27.5°
Drops below altitude 10° 15:52:24 10° 343° (NNW) 4,130 11.3 26.5°
Sets 15:58:20 0° 11° (NNE) 4,644 11.2 25.2°
